TimePDT,TemperatureF,Dew PointF,Humidity,Sea Level PressureIn,VisibilityMPH,Wind Direction,Wind SpeedMPH,Gust SpeedMPH,PrecipitationIn,Events,Conditions,WindDirDegrees,DateUTC
12:15 AM,55.4,51.8,88,30.18,10.0,South,4.6,-,N/A,,Clear,170,2014-05-14 07:15:00
12:35 AM,55.4,55.4,100,30.17,10.0,Calm,Calm,-,N/A,,Clear,0,2014-05-14 07:35:00
12:55 AM,55.4,55.4,100,30.17,10.0,SE,3.5,-,N/A,,Clear,130,2014-05-14 07:55:00
1:15 AM,55.4,53.6,94,30.17,10.0,SSE,3.5,-,N/A,,Clear,150,2014-05-14 08:15:00
1:35 AM,55.4,55.4,100,30.17,10.0,East,3.5,-,N/A,,Clear,90,2014-05-14 08:35:00
1:55 AM,55.4,55.4,100,30.17,10.0,Calm,Calm,-,N/A,,Clear,0,2014-05-14 08:55:00
2:15 AM,55.4,53.6,94,30.16,10.0,Calm,Calm,-,N/A,,Clear,0,2014-05-14 09:15:00
2:35 AM,55.4,53.6,94,30.16,10.0,Calm,Calm,-,N/A,,Clear,0,2014-05-14 09:35:00
2:55 AM,53.6,53.6,100,30.15,10.0,Calm,Calm,-,N/A,,Clear,0,2014-05-14 09:55:00
3:15 AM,53.6,53.6,100,30.15,10.0,ESE,4.6,-,N/A,,Clear,120,2014-05-14 10:15:00
3:35 AM,55.4,53.6,94,30.15,10.0,Calm,Calm,-,N/A,,Clear,0,2014-05-14 10:35:00
3:55 AM,53.6,53.6,100,30.14,10.0,Calm,Calm,-,N/A,,Clear,0,2014-05-14 10:55:00
4:15 AM,53.6,51.8,94,30.14,10.0,Calm,Calm,-,N/A,,Clear,0,2014-05-14 11:15:00
4:35 AM,53.6,53.6,100,30.13,10.0,SE,3.5,-,N/A,,Clear,130,2014-05-14 11:35:00
4:55 AM,53.6,53.6,100,30.13,10.0,Calm,Calm,-,N/A,,Clear,0,2014-05-14 11:55:00
5:15 AM,53.6,51.8,94,30.13,10.0,Calm,Calm,-,N/A,,Clear,0,2014-05-14 12:15:00
5:35 AM,51.8,51.8,100,30.13,10.0,SSE,4.6,-,N/A,,Clear,160,2014-05-14 12:35:00
5:55 AM,53.6,51.8,94,30.13,10.0,Calm,Calm,-,N/A,,Clear,0,2014-05-14 12:55:00
6:15 AM,53.6,53.6,100,30.13,10.0,Calm,Calm,-,N/A,,Clear,0,2014-05-14 13:15:00
6:35 AM,53.6,51.8,94,30.13,10.0,NNE,3.5,-,N/A,,Clear,30,2014-05-14 13:35:00
6:55 AM,55.4,53.6,94,30.14,10.0,NE,3.5,-,N/A,,Clear,40,2014-05-14 13:55:00
8:15 AM,64.4,57.2,77,30.13,10.0,Calm,Calm,-,N/A,,Clear,0,2014-05-14 15:15:00
8:35 AM,66.2,57.2,73,30.12,10.0,Calm,Calm,-,N/A,,Clear,0,2014-05-14 15:35:00
8:55 AM,73.4,55.4,53,30.12,10.0,ESE,4.6,-,N/A,,Clear,120,2014-05-14 15:55:00
9:15 AM,75.2,55.4,50,30.12,10.0,SE,4.6,-,N/A,,Clear,130,2014-05-14 16:15:00
9:35 AM,77.0,53.6,44,30.11,9.0,East,3.5,-,N/A,,Clear,90,2014-05-14 16:35:00
9:55 AM,80.6,55.4,42,30.11,9.0,SE,3.5,-,N/A,,Clear,140,2014-05-14 16:55:00
10:15 AM,80.6,51.8,37,30.11,10.0,Calm,Calm,-,N/A,,Clear,0,2014-05-14 17:15:00
10:35 AM,78.8,55.4,44,30.11,10.0,Calm,Calm,-,N/A,,Clear,0,2014-05-14 17:35:00
10:55 AM,80.6,55.4,42,30.10,10.0,West,6.9,-,N/A,,Clear,260,2014-05-14 17:55:00
11:15 AM,78.8,55.4,44,30.10,10.0,West,8.1,-,N/A,,Clear,270,2014-05-14 18:15:00
11:35 AM,80.6,55.4,42,30.10,10.0,West,10.4,-,N/A,,Clear,270,2014-05-14 18:35:00
11:55 AM,78.8,53.6,42,30.10,10.0,West,9.2,-,N/A,,Clear,270,2014-05-14 18:55:00
12:15 PM,78.8,55.4,44,30.11,10.0,WNW,9.2,-,N/A,,Clear,290,2014-05-14 19:15:00
12:35 PM,77.0,57.2,50,30.11,10.0,West,10.4,-,N/A,,Clear,260,2014-05-14 19:35:00
12:55 PM,75.2,59.0,57,30.10,10.0,West,9.2,-,N/A,,Clear,260,2014-05-14 19:55:00
1:15 PM,77.0,57.2,50,30.10,10.0,West,6.9,-,N/A,,Clear,260,2014-05-14 20:15:00
1:35 PM,78.8,53.6,42,30.10,10.0,West,9.2,-,N/A,,Clear,260,2014-05-14 20:35:00
1:55 PM,75.2,57.2,53,30.10,10.0,West,11.5,-,N/A,,Clear,280,2014-05-14 20:55:00
2:15 PM,71.6,57.2,60,30.10,9.0,West,11.5,-,N/A,,Clear,270,2014-05-14 21:15:00
2:35 PM,73.4,55.4,53,30.11,10.0,West,8.1,-,N/A,,Clear,280,2014-05-14 21:35:00
2:55 PM,73.4,55.4,53,30.11,10.0,West,6.9,-,N/A,,Clear,280,2014-05-14 21:55:00
3:15 PM,73.4,55.4,53,30.11,10.0,West,9.2,-,N/A,,Clear,280,2014-05-14 22:15:00
3:35 PM,73.4,57.2,57,30.11,10.0,WNW,8.1,-,N/A,,Clear,290,2014-05-14 22:35:00
3:55 PM,73.4,55.4,53,30.10,10.0,WNW,8.1,-,N/A,,Clear,290,2014-05-14 22:55:00
4:15 PM,73.4,55.4,53,30.10,10.0,WNW,5.8,-,N/A,,Clear,300,2014-05-14 23:15:00
4:55 PM,71.6,57.2,60,30.10,10.0,WNW,5.8,-,N/A,,Clear,300,2014-05-14 23:55:00
5:15 PM,71.6,55.4,57,30.10,10.0,West,4.6,-,N/A,,Clear,280,2014-05-15 00:15:00
5:35 PM,69.8,55.4,60,30.10,10.0,West,8.1,-,N/A,,Clear,280,2014-05-15 00:35:00
5:55 PM,69.8,55.4,60,30.09,10.0,West,8.1,-,N/A,,Clear,260,2014-05-15 00:55:00
6:15 PM,69.8,55.4,60,30.09,10.0,West,9.2,-,N/A,,Clear,280,2014-05-15 01:15:00
6:35 PM,68.0,57.2,68,30.09,10.0,West,8.1,-,N/A,,Clear,280,2014-05-15 01:35:00
6:55 PM,68.0,57.2,68,30.09,10.0,West,5.8,-,N/A,,Clear,280,2014-05-15 01:55:00
7:15 PM,66.2,57.2,73,30.09,10.0,Calm,Calm,-,N/A,,Clear,0,2014-05-15 02:15:00
7:35 PM,68.0,57.2,68,30.09,10.0,Calm,Calm,-,N/A,,Clear,0,2014-05-15 02:35:00
7:55 PM,68.0,55.4,64,30.09,10.0,Calm,Calm,-,N/A,,Clear,0,2014-05-15 02:55:00
8:15 PM,68.0,53.6,60,30.09,10.0,Calm,Calm,-,N/A,,Clear,0,2014-05-15 03:15:00
8:35 PM,66.2,53.6,64,30.10,10.0,East,4.6,-,N/A,,Clear,80,2014-05-15 03:35:00
8:55 PM,64.4,55.4,73,30.10,10.0,Calm,Calm,-,N/A,,Clear,0,2014-05-15 03:55:00
9:15 PM,64.4,55.4,73,30.10,10.0,SSE,3.5,-,N/A,,Clear,160,2014-05-15 04:15:00
9:35 PM,60.8,55.4,82,30.10,10.0,SE,4.6,-,N/A,,Clear,130,2014-05-15 04:35:00
9:55 PM,60.8,55.4,82,30.11,10.0,SE,4.6,-,N/A,,Clear,130,2014-05-15 04:55:00
10:15 PM,60.8,55.4,82,30.10,10.0,SE,5.8,-,N/A,,Clear,140,2014-05-15 05:15:00
10:35 PM,60.8,55.4,82,30.10,10.0,SSE,5.8,-,N/A,,Clear,150,2014-05-15 05:35:00
10:55 PM,60.8,55.4,82,30.10,10.0,SE,4.6,-,N/A,,Clear,140,2014-05-15 05:55:00
11:15 PM,59.0,55.4,88,30.10,10.0,SSE,6.9,-,N/A,,Clear,150,2014-05-15 06:15:00
11:35 PM,59.0,55.4,88,30.11,10.0,Calm,Calm,-,N/A,,Clear,0,2014-05-15 06:35:00
11:55 PM,60.8,55.4,82,30.11,9.0,Calm,Calm,-,N/A,,Clear,0,2014-05-15 06:55:00